Stations météo

Publicité
Brest, France (7110): Température de l'air & dewpoint: 31.03.2020 17:00:00 - 06.04.2020 17:00:00 (CEST)Brest, France (7110): Température de l'air 5cm: 31.03.2020 17:00:00 - 06.04.2020 17:00:00 (CEST)Brest, France (7110): Température de l'air -20cm & Température de l'air -100cm: 31.03.2020 17:00:00 - 06.04.2020 17:00:00 (CEST)Brest, France (7110): Vitesse du vent & gusts: 31.03.2020 17:00:00 - 06.04.2020 17:00:00 (CEST)Brest, France (7110): Direction du vent: 31.03.2020 17:00:00 - 06.04.2020 17:00:00 (CEST)Brest, France (7110): reduced air pressure: 31.03.2020 17:00:00 - 06.04.2020 17:00:00 (CEST)Brest, France (7110): visibility: 31.03.2020 17:00:00 - 06.04.2020 17:00:00 (CEST)Brest, France (7110): Ensoleillement: 31.03.2020 17:00:00 - 06.04.2020 17:00:00 (CEST)Brest, France (7110): Quantités de précipitations: 31.03.2020 17:00:00 - 06.04.2020 17:00:00 (CEST)
Date & Time tt [°C] td [°C] tt 5cm [°C] tt -20cm [°C] tt -100cm [°C] ff [km/h] ff [knt] fx [km/h] fx [knt] dd ppp [hPa] vv [km] sd [min] rr [mm]
06.04.2020 17:00:00 - - - - - - - - - - - - - -
06.04.2020 16:00:00 14,5 8,4 15,7 9,4 8,9 11 6 22 12 WSW 1022,2 36 6 0,0
06.04.2020 15:00:00 14,3 8,7 15,8 9,4 8,9 12 7 21 12 W 1021,6 41 20 0,0
06.04.2020 14:00:00 13,2 9,1 14,8 9,3 8,9 13 7 25 14 WSW 1020,9 20 0 0,0
06.04.2020 13:00:00 13,0 9,3 13,3 9,3 8,9 16 8 25 13 WSW 1020,2 41 7 0,0
06.04.2020 12:00:00 12,3 9,7 12,6 9,3 8,9 13 7 30 16 W 1019,6 18 0 0,0
06.04.2020 11:00:00 12,2 10,1 12,6 9,3 8,9 13 7 23 13 WSW 1018,5 19 8 0,0
06.04.2020 10:00:00 11,4 10,1 10,7 9,3 8,9 14 8 22 12 SW 1017,5 13 15 0,0
06.04.2020 09:00:00 10,5 9,9 5,9 9,3 8,9 12 7 19 11 WSW 1016,6 11 0 0,0
06.04.2020 08:00:00 9,1 8,6 5,6 9,3 8,9 12 6 20 11 SW 1015,3 9 0 0,0
06.04.2020 07:00:00 10,0 9,4 8,4 9,3 8,9 13 7 24 13 SW 1014,1 8 0 0,0
06.04.2020 06:00:00 10,5 9,7 9,2 9,3 8,9 16 9 26 14 WSW 1013,5 9 0 0,0
06.04.2020 05:00:00 10,6 9,7 9,4 9,3 8,9 12 6 22 12 SW 1012,7 11 0 0,0
06.04.2020 04:00:00 10,9 10,0 10,1 9,3 8,9 15 8 29 16 WSW 1012,0 16 0 0,0
06.04.2020 03:00:00 11,0 10,1 10,2 9,2 8,9 12 6 40 21 WSW 1011,3 59 0 0,0
06.04.2020 02:00:00 12,2 11,6 11,9 9,2 8,9 26 14 49 26 SW 1010,1 9 0 0,2
06.04.2020 01:00:00 12,7 11,8 12,1 9,2 8,9 29 15 45 25 SSW 1009,5 19 0 0,0
06.04.2020 00:00:00 12,8 11,9 12,2 9,1 8,9 29 16 46 25 S 1009,1 40 0 0,0
05.04.2020 23:00:00 12,7 11,9 12,3 9,1 8,9 30 16 51 28 S 1009,3 19 0 0,8
05.04.2020 22:00:00 12,9 12,1 12,0 9,0 8,9 29 16 48 26 S 1009,1 11 0 1,8
05.04.2020 21:00:00 12,6 11,3 11,9 9,0 8,9 29 16 53 28 S 1008,7 2,2 0 2,4
05.04.2020 20:00:00 13,9 10,1 12,9 8,9 8,9 22 12 40 22 SSE 1008,0 22 2 0,0
05.04.2020 19:00:00 14,7 10,5 14,2 8,8 8,9 27 15 47 26 SSE 1007,5 20 3 0,0
05.04.2020 18:00:00 16,0 10,7 17,3 8,7 8,9 30 16 49 26 S 1007,4 20 12 0,0
05.04.2020 17:00:00 15,8 10,5 17,1 8,5 8,9 34 18 54 29 S 1007,9 35 0 0,0
05.04.2020 16:00:00 17,8 11,1 23,0 8,5 8,9 32 17 53 29 S 1007,7 20 52 0,0
05.04.2020 15:00:00 18,4 10,7 25,4 8,3 8,9 31 17 50 27 SSE 1008,1 19 55 0,0
05.04.2020 14:00:00 18,6 11,7 23,5 8,3 8,9 26 14 48 26 SSE 1008,2 11 60 0,0
05.04.2020 13:00:00 18,7 11,3 22,8 8,3 8,9 30 16 49 26 SSE 1008,6 21 60 0,0
05.04.2020 12:00:00 17,8 11,1 19,5 8,2 8,9 25 13 47 25 SSE 1009,1 19 60 0,0
05.04.2020 11:00:00 16,4 10,5 13,5 8,2 8,9 23 12 44 24 SSE 1009,0 19 60 0,0
05.04.2020 10:00:00 13,5 9,2 10,0 8,2 8,9 21 11 31 17 SSE 1009,0 27 44 0,0
05.04.2020 09:00:00 11,7 7,2 8,2 8,3 8,9 16 9 31 17 E 1009,0 47 17 0,0
05.04.2020 08:00:00 11,3 5,8 7,9 8,2 8,9 22 12 39 21 SE 1008,6 59 0 0,0
05.04.2020 07:00:00 11,3 4,7 7,5 8,2 8,9 21 11 36 19 SE 1008,7 60 0 0,0
05.04.2020 06:00:00 11,4 4,1 7,0 8,3 8,9 25 13 40 22 SE 1008,8 60 0 0,0
05.04.2020 05:00:00 11,1 3,6 7,3 8,3 8,9 23 12 40 21 SE 1009,4 60 0 0,0
05.04.2020 04:00:00 11,2 3,7 7,2 8,3 8,9 23 12 37 20 SE 1010,3 60 0 0,0
05.04.2020 03:00:00 11,4 3,9 6,0 8,3 8,9 22 12 37 20 SE 1011,1 60 0 0,0
05.04.2020 02:00:00 10,4 4,1 3,8 8,3 8,9 21 11 47 25 SE 1011,9 60 0 0,0
05.04.2020 01:00:00 9,2 3,2 3,6 8,4 8,9 19 10 30 16 SE 1012,4 60 0 0,0
05.04.2020 00:00:00 9,4 3,4 3,2 8,3 8,9 17 9 28 15 SE 1013,1 60 0 0,0
04.04.2020 23:00:00 9,8 3,3 4,1 8,3 8,9 18 10 33 18 SE 1013,6 60 0 0,0
04.04.2020 22:00:00 10,6 3,4 5,5 8,2 8,9 21 11 31 17 SSE 1013,9 60 0 0,0
04.04.2020 21:00:00 12,3 3,2 7,7 8,2 8,9 16 9 36 20 SSE 1013,6 58 43 0,0
04.04.2020 20:00:00 14,8 3,3 11,6 8,0 8,9 25 14 50 27 S 1013,7 50 60 0,0
04.04.2020 19:00:00 16,2 3,3 19,2 8,0 8,9 31 17 51 28 SSE 1013,6 33 60 0,0
04.04.2020 18:00:00 16,9 2,8 22,5 7,9 8,9 29 16 53 28 SSE 1013,8 40 60 0,0
04.04.2020 17:00:00 16,8 2,8 24,6 7,8 8,9 30 16 51 28 SSE 1014,6 30 60 0,0
04.04.2020 16:00:00 16,4 1,7 24,7 7,7 8,9 28 15 51 28 SE 1015,4 28 60 0,0
04.04.2020 15:00:00 16,5 3,5 22,2 7,6 8,9 32 17 56 30 S 1016,0 20 60 0,0
04.04.2020 14:00:00 15,9 3,3 20,9 7,6 8,9 31 17 61 33 S 1016,3 19 60 0,0
04.04.2020 13:00:00 15,6 4,0 18,7 7,5 8,9 40 22 61 33 SSE 1016,8 19 60 0,0
04.04.2020 12:00:00 14,6 4,3 15,3 7,6 8,9 32 18 51 28 SSE 1017,1 20 60 0,0
04.04.2020 11:00:00 12,5 6,1 12,3 7,6 8,9 24 13 39 21 SSE 1017,3 20 60 0,0
04.04.2020 10:00:00 10,5 6,1 5,2 7,7 8,9 23 12 37 20 SE 1017,5 29 60 0,0
04.04.2020 09:00:00 8,0 5,6 -1,7 7,7 8,9 20 11 29 16 SE 1017,4 17 50 0,0
04.04.2020 08:00:00 4,4 3,2 -3,2 7,7 8,9 16 9 25 13 ESE 1017,6 44 0 0,0
04.04.2020 07:00:00 3,9 3,0 -3,1 7,8 8,9 16 8 23 12 ESE 1018,0 44 0 0,0
04.04.2020 06:00:00 4,1 3,2 -3,2 7,9 8,9 15 8 21 11 ESE 1018,3 41 0 0,0
04.04.2020 05:00:00 4,7 4,0 -3,8 8,0 8,9 10 6 16 9 ESE 1018,7 19 0 0,0
04.04.2020 04:00:00 4,7 4,0 -3,9 8,0 8,9 8 4 18 10 SE 1019,2 20 0 0,0
04.04.2020 03:00:00 4,6 3,9 -3,8 8,1 8,9 11 6 14 7 E 1019,6 13 0 0,0
04.04.2020 02:00:00 3,3 2,0 -3,2 8,1 8,9 5 3 10 6 E 1020,0 14 0 0,0
04.04.2020 01:00:00 4,9 4,0 -3,0 8,2 8,9 10 5 11 6 E 1020,3 6 0 0,0
04.04.2020 00:00:00 5,5 4,5 -2,5 8,2 8,9 8 5 10 5 ENE 1020,5 10 0 0,0
03.04.2020 23:00:00 6,3 4,9 -1,7 8,1 8,9 8 4 10 6 NE 1020,6 14 0 0,0
03.04.2020 22:00:00 7,1 4,7 -0,2 8,1 8,9 7 4 9 5 NE 1020,5 19 0 0,0
03.04.2020 21:00:00 9,7 6,0 8,1 8,0 8,9 6 3 14 7 N 1019,9 19 38 0,0
03.04.2020 20:00:00 12,3 5,0 10,0 7,9 8,9 8 4 17 9 W 1019,8 54 60 0,0
03.04.2020 19:00:00 13,0 4,9 16,4 7,9 8,9 10 6 27 15 WSW 1020,0 45 55 0,0
03.04.2020 18:00:00 12,6 4,8 15,2 7,8 8,9 12 6 26 14 WNW 1020,0 43 22 0,0
03.04.2020 17:00:00 13,1 6,2 14,4 7,7 8,9 14 8 24 13 WSW 1020,4 52 5 0,0
03.04.2020 16:00:00 11,9 5,3 14,4 7,6 8,9 15 8 24 13 WSW 1020,8 51 1 0,0
03.04.2020 15:00:00 12,0 6,5 15,7 7,6 8,9 10 6 22 12 W 1021,1 42 13 0,0
03.04.2020 14:00:00 13,5 6,8 15,4 7,5 8,9 13 7 22 12 WSW 1021,1 44 34 0,0
03.04.2020 13:00:00 11,6 5,5 12,7 7,5 8,9 9 5 24 13 WSW 1021,4 30 20 0,0
03.04.2020 12:00:00 10,5 6,1 11,9 7,6 8,9 11 6 22 12 W 1021,6 20 18 0,0
03.04.2020 11:00:00 9,8 7,0 11,9 7,6 8,9 11 6 21 11 WSW 1021,4 31 48 0,0
03.04.2020 10:00:00 8,4 7,5 -1,6 7,7 8,9 7 4 11 6 W 1021,1 19 52 0,0
03.04.2020 09:00:00 4,9 4,5 -4,1 7,7 8,9 6 3 9 5 WSW 1021,3 15 44 0,0
03.04.2020 08:00:00 3,0 2,6 -4,3 7,8 8,9 7 4 11 6 W 1020,9 2,1 0 0,0
03.04.2020 07:00:00 2,4 1,8 -4,0 7,9 8,9 5 3 12 7 WSW 1021,1 12 0 0,0
03.04.2020 06:00:00 4,8 4,4 -3,7 7,9 8,9 10 6 16 8 NW 1020,6 14 0 0,0
03.04.2020 05:00:00 4,9 4,5 -4,1 8,0 8,9 7 4 11 6 NW 1020,7 13 0 0,0
03.04.2020 04:00:00 2,7 2,1 -4,0 8,0 9,0 6 3 10 5 W 1021,0 0,4 0 0,0
03.04.2020 03:00:00 4,4 4,0 -3,5 8,1 8,9 7 4 13 7 NW 1020,9 4,8 0 0,0
03.04.2020 02:00:00 3,7 2,7 -2,7 8,1 9,0 5 3 10 5 WNW 1021,0 11 0 0,0
03.04.2020 01:00:00 6,1 5,1 -1,2 8,1 8,9 8 4 11 6 NNW 1021,1 14 0 0,0
03.04.2020 00:00:00 6,3 4,9 -0,9 8,2 9,0 7 4 13 7 NNW 1021,5 17 0 0,0
02.04.2020 23:00:00 6,8 5,1 0,9 8,1 8,9 8 4 11 6 NNW 1021,5 20 0 0,0
02.04.2020 22:00:00 8,3 6,3 6,6 8,1 8,9 9 5 25 13 NNW 1021,2 41 0 0,0
02.04.2020 21:00:00 8,8 6,2 8,0 8,0 8,9 12 6 27 14 NNW 1020,9 60 1 0,0
02.04.2020 20:00:00 9,3 6,0 9,5 7,9 8,9 15 8 32 17 N 1020,7 60 2 0,0
02.04.2020 19:00:00 10,0 5,8 10,8 7,9 8,9 19 10 36 20 NNW 1020,2 44 18 0,0
02.04.2020 18:00:00 10,8 4,3 13,4 7,8 8,9 22 12 36 20 NNW 1020,3 25 20 0,0
02.04.2020 17:00:00 11,1 3,9 14,5 7,8 9,0 20 11 37 20 NNW 1020,3 25 17 0,0
02.04.2020 16:00:00 11,1 4,3 16,1 7,7 9,0 20 11 36 20 NNW 1020,5 21 21 0,0
02.04.2020 15:00:00 10,9 3,0 14,8 7,7 8,9 18 10 32 18 N 1020,5 36 11 0,0
02.04.2020 14:00:00 10,3 2,9 14,8 7,6 9,0 18 10 40 22 N 1020,9 46 0 0,0
02.04.2020 13:00:00 10,8 0,8 13,5 7,6 9,0 27 14 41 22 NNE 1020,9 20 50 0,0
02.04.2020 12:00:00 9,7 1,6 11,2 7,6 9,0 19 10 37 20 NNE 1021,0 22 1 0,0
02.04.2020 11:00:00 8,7 2,3 7,7 7,7 9,0 14 8 26 14 N 1021,0 47 0 0,0
02.04.2020 10:00:00 7,0 3,1 4,4 7,7 9,0 8 4 12 6 NNW 1020,7 52 0 0,0
02.04.2020 09:00:00 5,9 2,2 3,5 7,7 9,0 6 3 11 6 N 1020,7 46 0 0,0
02.04.2020 08:00:00 4,7 2,2 3,0 7,7 9,0 4 2 8 4 N 1020,3 29 0 0,0
02.04.2020 07:00:00 4,5 2,4 3,0 7,7 9,0 4 2 9 5 N 1020,2 26 0 0,0
02.04.2020 06:00:00 4,5 2,0 2,9 7,8 9,0 4 2 8 4 N 1020,3 23 0 0,0
02.04.2020 05:00:00 4,7 1,5 0,7 7,8 9,0 6 3 11 6 N 1020,5 23 0 0,0
02.04.2020 04:00:00 4,0 1,7 -2,4 7,9 9,0 8 4 14 8 NE 1020,9 25 0 0,0
02.04.2020 03:00:00 3,0 1,0 -3,3 7,9 9,0 7 4 11 6 NE 1021,4 20 0 0,0
02.04.2020 02:00:00 3,5 1,2 -3,4 7,9 9,0 8 5 10 6 NNE 1021,7 20 0 0,0
02.04.2020 01:00:00 3,2 0,9 -2,1 7,9 9,0 8 4 16 9 NNE 1022,0 19 0 0,0
02.04.2020 00:00:00 3,9 1,4 0,4 7,9 9,0 10 6 19 11 NE 1021,8 19 0 0,0
01.04.2020 23:00:00 3,9 1,3 1,2 7,9 9,0 11 6 21 12 NE 1021,8 18 0 0,0
01.04.2020 22:00:00 4,4 1,6 1,8 7,9 9,0 12 6 28 15 NNE 1021,6 11 0 0,0
01.04.2020 21:00:00 5,8 2,3 4,1 7,9 9,0 18 10 44 24 NE 1020,9 13 0 0,0
01.04.2020 20:00:00 7,1 2,8 6,9 7,8 9,0 25 14 48 26 NNE 1020,8 14 33 0,0
01.04.2020 19:00:00 8,1 2,3 9,0 7,8 9,0 26 14 46 25 NE 1020,7 13 55 0,0
01.04.2020 18:00:00 9,1 2,4 12,6 7,7 9,0 31 17 51 28 NNE 1020,7 10 60 0,0
01.04.2020 17:00:00 10,2 2,5 16,0 7,7 9,0 29 15 50 27 NE 1020,7 14 60 0,0
01.04.2020 16:00:00 10,5 1,8 18,1 7,7 9,0 31 17 51 28 NE 1020,8 17 60 0,0
01.04.2020 15:00:00 10,5 2,1 15,9 7,6 9,0 33 18 50 27 NE 1021,0 11 60 0,0
01.04.2020 14:00:00 10,4 2,5 15,9 7,6 9,0 32 18 51 28 NE 1021,5 13 60 0,0
01.04.2020 13:00:00 10,5 3,1 13,2 7,6 9,0 29 16 45 24 NE 1021,9 12 60 0,0
01.04.2020 12:00:00 9,6 3,8 10,6 7,6 9,0 29 15 44 24 NE 1022,5 12 60 0,0
01.04.2020 11:00:00 7,9 3,4 7,9 7,7 9,1 29 15 46 25 NE 1023,2 11 60 0,0
01.04.2020 10:00:00 6,8 3,6 3,4 7,6 9,0 24 13 36 19 ENE 1023,2 12 60 0,0
01.04.2020 09:00:00 4,8 3,0 1,5 7,7 9,0 19 10 28 15 NE 1023,3 11 33 0,0
01.04.2020 08:00:00 3,5 2,0 0,9 7,7 9,0 14 8 24 13 NE 1023,3 11 0 0,0
01.04.2020 07:00:00 3,4 1,9 0,8 7,8 9,0 14 7 24 13 NE 1023,4 12 0 0,0
01.04.2020 06:00:00 3,7 2,1 1,0 7,8 9,0 14 8 29 15 NE 1023,3 13 0 0,0
01.04.2020 05:00:00 3,4 1,6 0,5 7,8 9,0 16 8 24 13 NE 1023,7 16 0 0,0
01.04.2020 04:00:00 3,3 1,0 0,7 7,9 9,0 16 9 26 14 NE 1024,2 18 0 0,0
01.04.2020 03:00:00 3,7 0,9 1,6 7,9 9,0 19 11 29 16 NE 1024,5 20 0 0,0
01.04.2020 02:00:00 3,9 0,8 1,8 7,9 9,1 18 10 36 19 NNE 1024,8 29 0 0,0
01.04.2020 01:00:00 4,4 0,9 2,1 7,9 9,1 24 13 36 19 NE 1025,1 29 0 0,0
01.04.2020 00:00:00 5,1 1,2 3,3 7,9 9,0 24 13 40 21 ENE 1025,5 29 0 0,0
31.03.2020 23:00:00 5,9 1,6 3,9 7,9 9,1 29 16 45 25 ENE 1025,4 29 0 0,0
31.03.2020 22:00:00 6,1 2,2 4,2 7,9 9,1 25 13 42 23 ENE 1025,3 25 0 0,0
31.03.2020 21:00:00 6,7 2,0 5,0 7,8 9,0 31 17 51 27 NE 1024,8 39 24 0,0
31.03.2020 20:00:00 7,7 1,5 6,7 7,8 9,1 35 19 67 36 NE 1024,3 38 60 0,0
31.03.2020 19:00:00 8,6 1,9 10,6 7,8 9,1 39 21 62 33 NE 1024,0 19 60 0,0
31.03.2020 18:00:00 9,1 2,2 11,2 7,7 9,1 42 23 62 33 NE 1024,3 16 57 0,0
31.03.2020 17:00:00 9,9 2,0 12,7 7,7 9,1 39 21 69 37 NE 1024,4 13 48 0,0

tt = Température de l'air
td = dewpoint
tt 5cm = Température de l'air 5cm
tt -20cm = Température de l'air -20cm
tt -100cm = Température de l'air -100cm
ff = Vitesse du vent
fx = gusts
dd = Direction du vent
ppp = reduced air pressure
vv = visibility
sd = Ensoleillement
rr = Quantités de précipitations

stations d'obs. à proximité